Location: Bothell
(47.7630°N, 122.2040°W)
Time: 22:18:01
(UTC-07:00)

Amateur Radio Satellites - All Passes

Search period start: 24 May 2016 21:48
Search period end: 25 May 2016 21:48
Location: Bothell, 47.7630°N, 122.2040°W

Satellite Date Start Highest point End Downlink Frequencies (MHz)
Time Altitude Azimuth
PRISM 24 May 21:49:10 21:53:23 90° 295° (WNW) 21:57:34 437.425
Cosmos 2499 24 May 21:49:39 21:54:23 19° 76° (ENE) 21:59:17 435.465 / 435.565
STRAND 1 24 May 21:59:05 22:03:05 23° 300° (WNW) 22:07:05 437.568
ESTCUBE 1 24 May 22:06:38 22:08:49 13° 57° (ENE) 22:11:01 437.505/2401.250
BEESAT 2 24 May 22:12:28 22:16:16 43° 239° (WSW) 22:20:03 435.950
DANDE 24 May 22:17:12 22:23:27 23° 56° (NE) 22:29:39 436.750
AIST 2 24 May 22:17:37 22:21:04 24° 38° (NE) 22:24:30 435.215
Oscar 11 24 May 22:32:17 22:35:46 24° 267° (W) 22:39:16 145.826/435.025
ANTELSAT 24 May 22:32:56 22:35:41 16° 91° (E) 22:38:25 437.575/2403.000
CUBEBUG 2 24 May 22:33:11 22:35:30 14° 271° (W) 22:37:47 437.445
50 SAT 24 May 22:34:37 22:36:33 14° 62° (ENE) 22:38:31 437.505
ZACube-1 24 May 22:40:28 22:43:47 22° 267° (W) 22:47:02 437.345
VELOX 1 24 May 22:41:00 22:44:11 19° 61° (ENE) 22:47:22 145.980
DELFI C3 24 May 22:41:01 22:44:37 33° 264° (W) 22:48:16 145.870
CUBEBUG 1 24 May 22:42:26 22:45:40 20° 62° (ENE) 22:48:52 437.445
DX 1 24 May 22:46:42 22:49:46 19° 61° (ENE) 22:52:52 434.975-435.025
CUSAT 1 24 May 22:52:37 23:00:29 53° 70° (ENE) 23:07:23 437.405
BEESAT 3 24 May 22:55:56 22:56:51 11° 251° (WSW) 22:57:46 437.485
RS-15 24 May 23:08:03 23:18:42 35° 360° (N) 23:29:41 29.354- 29.394
AIST 1 24 May 23:09:20 23:13:09 28° 289° (WNW) 23:17:01
AISAT 24 May 23:15:25 23:19:36 40° 69° (ENE) 23:23:49 437.250
HUMSAT D 24 May 23:15:33 23:19:14 32° 264° (W) 23:22:55 437.325/437.525
ISS 24 May 23:21:52 23:24:51 34° 145° (SE) 23:27:51 145.825
SPROUT 24 May 23:23:53 23:27:02 20° 63° (ENE) 23:30:12 437.525
PRISM 24 May 23:26:33 23:28:02 12° 303° (WNW) 23:29:31 437.425
UNISAT 6 24 May 23:27:08 23:31:21 57° 101° (E) 23:35:36 437.425
GONETS M04 24 May 23:30:27 23:39:13 68° 283° (WNW) 23:48:00
TIGRISAT 24 May 23:35:46 23:40:02 66° 102° (ESE) 23:44:19 435.000
Cosmos 2499 24 May 23:39:01 23:46:15 90° 276° (W) 23:54:05 435.465 / 435.565
ESTCUBE 1 24 May 23:40:26 23:44:58 87° 257° (WSW) 23:49:32 437.505/2401.250
UKube-1 24 May 23:40:30 23:44:40 48° 70° (ENE) 23:48:52 .
POPSAT HIP 1 24 May 23:50:24 23:53:31 20° 92° (E) 23:56:38 437.405
QB50P1 24 May 23:51:05 23:54:16 21° 93° (E) 23:57:26 145.935-145.965
QB50P2 24 May 23:52:09 23:55:28 22° 93° (E) 23:58:46 145.880/145.840
POLYITAN 1 24 May 23:54:34 23:57:54 22° 93° (E) 00:01:14 437.675
AIST 2 24 May 23:55:46 23:59:51 55° 237° (WSW) 00:03:53 435.215
DANDE 24 May 23:59:14 00:07:41 78° 77° (ENE) 00:15:46 436.750
TISAT 1 25 May 00:00:24 00:02:53 15° 60° (ENE) 00:05:22 437.305
50 SAT 25 May 00:06:20 00:09:54 53° 260° (W) 00:13:29 437.505
ANTELSAT 25 May 00:08:34 00:12:45 55° 288° (WNW) 00:16:58 437.575/2403.000
NANOSAT C BR1 25 May 00:10:56 00:14:41 31° 96° (E) 00:18:24 145.865
VELOX 1 25 May 00:15:54 00:20:17 55° 259° (W) 00:24:42 145.980
CUBEBUG 1 25 May 00:17:15 00:21:35 53° 260° (W) 00:25:58 437.445
DX 1 25 May 00:21:17 00:25:36 55° 259° (W) 00:29:56 434.975-435.025
CUSAT 1 25 May 00:35:09 00:42:24 40° 273° (W) 00:48:50 437.405
SO-50 25 May 00:49:07 00:52:21 18° 111° (ESE) 00:55:35 436.795
SWISSCUBE 25 May 00:50:34 00:53:00 14° 56° (NE) 00:55:26 437.505
DUCHIFAT 1 25 May 00:50:46 00:54:58 77° 103° (ESE) 00:59:08 145.980
AISAT 25 May 00:52:35 00:56:14 24° 266° (W) 00:59:54 437.250
ITUPSAT 1 25 May 00:55:05 00:57:28 14° 56° (NE) 00:59:52 437.325
ISS 25 May 00:57:58 01:01:12 58° 343° (NNW) 01:04:27 145.825
SPROUT 25 May 00:58:32 01:02:41 48° 261° (W) 01:06:52 437.525
UNISAT 6 25 May 01:04:52 01:07:42 17° 299° (WNW) 01:10:32 437.425
PHONESAT 2.4 25 May 01:09:21 01:11:36 18° 169° (S) 01:13:50 2401.200-2431.200
TIGRISAT 25 May 01:13:45 01:16:15 15° 300° (WNW) 01:18:46 435.000
JAS-2 25 May 01:16:32 01:23:27 36° 92° (E) 01:29:45 435.910
UKube-1 25 May 01:17:51 01:20:59 19° 268° (W) 01:24:08 .
BEESAT 25 May 01:19:12 01:22:49 22° 61° (ENE) 01:26:27 436.000
ESTCUBE 1 25 May 01:21:35 01:22:29 10° 274° (W) 01:23:22 437.505/2401.250
BUGSAT 1 25 May 01:21:52 01:25:58 80° 103° (ESE) 01:29:59 437.445
RS-15 25 May 01:23:02 01:34:49 50° 33° (NNE) 01:46:45 29.354- 29.394
POPSAT HIP 1 25 May 01:25:32 01:29:32 43° 290° (WNW) 01:33:30 437.405
QB50P1 25 May 01:26:16 01:30:14 42° 291° (WNW) 01:34:11 145.935-145.965
QB50P2 25 May 01:27:29 01:31:26 39° 291° (WNW) 01:35:20 145.880/145.840
POLYITAN 1 25 May 01:29:57 01:33:51 38° 291° (WNW) 01:37:44 437.675
GONETS M04 25 May 01:32:30 01:38:00 18° 308° (NW) 01:43:32
TISAT 1 25 May 01:33:51 01:38:03 66° 257° (WSW) 01:42:17 437.305
Cosmos 2499 25 May 01:35:21 01:40:41 21° 303° (WNW) 01:46:17 435.465 / 435.565
DANDE 25 May 01:42:58 01:49:48 29° 277° (W) 01:56:26 436.750
NANOSAT C BR1 25 May 01:46:46 01:50:21 28° 294° (WNW) 01:53:56 145.865
YUBILEINY 25 May 01:51:20 01:56:37 17° 51° (NE) 02:01:52 435.215
Gurwin Techsat 1B 25 May 02:23:52 02:28:05 23° 92° (E) 02:32:17 435.225
Oscar 19 25 May 02:24:45 02:29:49 51° 100° (E) 02:34:48 437.125/150
SWISSCUBE 25 May 02:25:20 02:30:06 89° 83° (E) 02:34:54 437.505
SO-50 25 May 02:27:23 02:32:17 78° 308° (NW) 02:37:13 436.795
DUCHIFAT 1 25 May 02:28:06 02:30:06 13° 301° (WNW) 02:32:05 145.980
ITUPSAT 1 25 May 02:29:50 02:34:36 88° 72° (ENE) 02:39:25 437.325
ISS 25 May 02:34:52 02:37:59 40° 3° (N) 02:41:06 145.825
PHONESAT 2.4 25 May 02:45:21 02:47:47 21° 186° (S) 02:50:12 2401.200-2431.200
Cosmos 2504 25 May 02:52:12 02:54:23 11° 47° (NE) 02:56:36 435.465 / 435.565
Cosmos 2491 25 May 02:53:59 02:57:53 14° 70° (ENE) 03:01:46 435.465 / 435.565
BEESAT 25 May 02:55:38 03:00:16 53° 259° (W) 03:04:57 436.000
MOZHAYETS 4 25 May 02:57:12 03:00:26 19° 61° (ENE) 03:03:41
BUGSAT 1 25 May 02:59:06 03:00:45 12° 302° (WNW) 03:02:22 437.445
ITAMSAT 1 25 May 03:00:29 03:04:17 20° 91° (E) 03:08:03 435.822/435.867
JAS-2 25 May 03:01:17 03:08:47 56° 293° (WNW) 03:15:36 435.910
KKS-1 25 May 03:02:40 03:06:29 28° 65° (ENE) 03:10:19 437.445
RS-15 25 May 03:36:03 03:48:15 73° 240° (WSW) 04:00:27 29.354- 29.394
STARS 25 May 03:46:03 03:50:10 39° 68° (ENE) 03:54:17 437.465
YUBILEINY 25 May 03:46:45 03:55:27 66° 76° (ENE) 04:04:10 435.215
Gurwin Techsat 1B 25 May 04:03:11 04:08:23 55° 290° (WNW) 04:13:33 435.225
Oscar 19 25 May 04:04:38 04:08:50 26° 299° (WNW) 04:13:01 437.125/150
SWISSCUBE 25 May 04:06:49 04:08:35 12° 273° (W) 04:10:22 437.505
SO-50 25 May 04:09:53 04:13:34 20° 331° (NNW) 04:17:12 436.795
ITUPSAT 1 25 May 04:11:14 04:13:08 12° 273° (W) 04:15:00 437.325
ISS 25 May 04:11:24 04:14:41 84° 22° (NNE) 04:17:57 145.825
CUBESAT XI-V 25 May 04:15:03 04:17:51 16° 58° (ENE) 04:20:40 437.345
PHONESAT 2.4 25 May 04:22:58 04:23:51 11° 202° (SSW) 04:24:44 2401.200-2431.200
MOZHAYETS 4 25 May 04:32:44 04:37:13 57° 260° (W) 04:41:44
AO-7 25 May 04:37:36 04:45:41 50° 101° (E) 04:53:44 29.400- 29.500
KKS-1 25 May 04:38:51 04:42:58 35° 263° (W) 04:47:05 437.445
ITAMSAT 1 25 May 04:39:01 04:44:11 63° 289° (WNW) 04:49:21 435.822/435.867
Cosmos 2504 25 May 04:42:20 04:50:14 46° 71° (ENE) 04:58:31 435.465 / 435.565
Cosmos 2491 25 May 04:44:11 04:52:50 64° 92° (E) 05:01:31 435.465 / 435.565
JAS-2 25 May 04:48:01 04:52:07 16° 315° (NW) 04:56:06 435.910
STARS 25 May 05:23:04 05:26:40 24° 266° (W) 05:30:16 437.465
YUBILEINY 25 May 05:44:18 05:51:39 32° 278° (W) 05:59:03 435.215
Gurwin Techsat 1B 25 May 05:46:34 05:47:12 10° 310° (NW) 05:47:50 435.225
ISS 25 May 05:48:21 05:50:49 20° 221° (SW) 05:53:15 145.825
CUBESAT XI-V 25 May 05:49:58 05:54:39 76° 258° (WSW) 05:59:23 437.345
RS-15 25 May 05:50:26 05:58:33 21° 263° (W) 06:06:40 29.354- 29.394
HORYU 2 25 May 05:52:40 05:57:04 57° 101° (ESE) 06:01:25 437.375
SO-50 25 May 05:54:43 05:55:55 11° 355° (N) 05:57:07 436.795
STRAND 1 25 May 06:01:28 06:04:57 19° 58° (ENE) 06:08:26 437.568
AO-85 25 May 06:14:30 06:18:04 18° 109° (ESE) 06:21:34 145.980
ITAMSAT 1 25 May 06:21:00 06:22:41 11° 309° (NW) 06:24:21 435.822/435.867
NOAA 18 25 May 06:21:58 06:26:04 21° 92° (E) 06:30:08 137.9125
AO-7 25 May 06:30:35 06:38:26 47° 302° (WNW) 06:46:16 29.400- 29.500
Cosmos 2504 25 May 06:35:53 06:43:39 47° 271° (W) 06:51:50 435.465 / 435.565
BRITE-PL 25 May 06:38:37 06:43:09 28° 92° (E) 06:47:22 437.365/2234.400
Cosmos 2491 25 May 06:42:25 06:50:17 35° 295° (WNW) 06:58:11 435.465 / 435.565
Cubesat XI-IV 25 May 06:46:07 06:50:42 28° 94° (E) 06:55:16 437.490
NOAA 15 25 May 06:51:15 06:56:18 43° 98° (E) 07:01:19 137.62
LilacSat-2 25 May 06:53:27 06:56:40 26° 95° (E) 06:59:53 437.200
PRISM 25 May 07:09:02 07:10:57 13° 58° (ENE) 07:12:51 437.425
GOMX 1 25 May 07:17:42 07:21:57 29° 93° (E) 07:25:54 467.674
HORYU 2 25 May 07:30:10 07:33:14 19° 299° (WNW) 07:36:17 437.375
CUTE-I 25 May 07:32:53 07:38:14 68° 103° (ESE) 07:43:34 437.470
Cosmos 2499 25 May 07:35:20 07:37:07 11° 45° (NE) 07:38:55 435.465 / 435.565
SO-50 25 May 07:35:52 07:38:30 14° 20° (NNE) 07:41:07 436.795
AIST 1 25 May 07:36:18 07:38:10 12° 63° (ENE) 07:40:00
STRAND 1 25 May 07:38:29 07:43:34 73° 257° (WSW) 07:48:43 437.568
GONETS M04 25 May 07:40:45 07:46:36 19° 54° (NE) 07:52:25
AO-85 25 May 07:52:29 07:57:59 87° 307° (NW) 08:03:18 145.980
NOAA 18 25 May 08:01:45 08:07:11 64° 290° (WNW) 08:12:35 137.9125
BRITE-PL 25 May 08:16:47 08:21:48 43° 292° (WNW) 08:26:27 437.365/2234.400
CANX-2 25 May 08:18:58 08:22:04 19° 91° (E) 08:25:11 2200.000
DOVE 4 25 May 08:20:12 08:24:40 56° 100° (E) 08:28:52 437.250
AO-7 25 May 08:25:07 08:29:12 15° 325° (NW) 08:33:17 29.400- 29.500
Cubesat XI-IV 25 May 08:25:51 08:30:58 47° 293° (WNW) 08:36:04 437.490
SEEDS 25 May 08:27:35 08:30:10 15° 90° (E) 08:32:44 437.485
LilacSat-2 25 May 08:27:44 08:30:58 27° 292° (WNW) 08:34:10 437.200
NOAA 15 25 May 08:31:18 08:35:56 31° 297° (WNW) 08:40:32 137.62
PRISM 25 May 08:41:31 08:45:40 80° 257° (WSW) 08:49:52 437.425
CUTE 1.7 + AOD 2 25 May 08:46:14 08:50:04 31° 96° (E) 08:53:55 437.475
HO-68 25 May 08:50:42 08:57:28 42° 98° (E) 09:04:11 435.675
GOMX 1 25 May 08:55:40 09:00:06 35° 294° (WNW) 09:04:15 467.674
UNISAT 6 25 May 08:56:47 08:57:25 10° 56° (NE) 08:58:02 437.425
TIGRISAT 25 May 09:04:20 09:05:50 12° 57° (ENE) 09:07:20 435.000
CINEMA 3 25 May 09:10:32 09:14:43 57° 100° (E) 09:18:47 145.822/145.860
AIST 1 25 May 09:12:01 09:16:25 80° 261° (W) 09:20:44
CUTE-I 25 May 09:13:52 09:17:48 21° 301° (WNW) 09:21:43 437.470
SO-50 25 May 09:15:42 09:20:16 42° 43° (NE) 09:24:40 436.795
AUBIESAT-1 25 May 09:16:39 09:19:57 51° 107° (ESE) 09:23:10 437.475
UWE-3 25 May 09:16:45 09:19:22 16° 90° (E) 09:21:57 435.000/436.395/437.385
COMPASS 1 25 May 09:17:46 09:21:40 36° 97° (E) 09:25:34 437.405
M-CUBED/EXP-1 PRIME 25 May 09:20:57 09:24:17 75° 108° (ESE) 09:27:32 437.505
AAUSAT CUBESAT 2 25 May 09:23:02 09:26:51 33° 96° (E) 09:30:39 437.432
Cosmos 2499 25 May 09:24:53 09:32:53 44° 70° (ENE) 09:41:11 435.465 / 435.565
FUNcube-1 25 May 09:28:49 09:30:59 14° 89° (E) 09:33:09 145.935
PCSat 25 May 09:34:27 09:36:55 13° 103° (ESE) 09:39:25 145.827
AO-85 25 May 09:34:50 09:39:10 24° 327° (NNW) 09:43:23 145.980
ANTELSAT 25 May 09:34:54 09:38:20 23° 64° (ENE) 09:41:44 437.575/2403.000
GONETS M04 25 May 09:36:28 09:45:13 74° 79° (ENE) 09:53:54
NOAA 18 25 May 09:44:40 09:46:49 12° 310° (NW) 09:49:00 137.9125
O/OREOS (USA 219) 25 May 09:45:05 09:48:22 20° 102° (ESE) 09:51:40 437.305
CANX-2 25 May 09:54:04 09:58:11 46° 289° (WNW) 10:02:17 2200.000
DOVE 4 25 May 09:58:51 10:01:56 18° 300° (WNW) 10:04:54 437.250
SEEDS 25 May 10:02:04 10:06:14 58° 288° (WNW) 10:10:25 437.485
DUCHIFAT 1 25 May 10:13:27 10:14:46 11° 57° (ENE) 10:16:05 145.980
Oscar 11 25 May 10:14:56 10:19:10 48° 99° (E) 10:23:22 145.826/435.025
DELFI C3 25 May 10:15:15 10:18:34 24° 94° (E) 10:21:52 145.870
CUBEBUG 2 25 May 10:17:51 10:22:02 85° 284° (WNW) 10:26:12 437.445
CUTE 1.7 + AOD 2 25 May 10:22:11 10:25:52 29° 293° (WNW) 10:29:32 437.475
ZACube-1 25 May 10:23:58 10:28:03 53° 100° (E) 10:32:11 437.345
UNISAT 6 25 May 10:29:01 10:33:24 76° 75° (ENE) 10:37:44 437.425
TIGRISAT 25 May 10:37:30 10:41:52 87° 76° (ENE) 10:46:12 435.000
HO-68 25 May 10:38:29 10:45:14 46° 298° (WNW) 10:51:59 435.675
BUGSAT 1 25 May 10:42:36 10:43:52 11° 57° (ENE) 10:45:08 437.445
POPSAT HIP 1 25 May 10:46:04 10:49:30 24° 65° (ENE) 10:52:55 437.405
QB50P1 25 May 10:46:41 10:50:09 25° 65° (ENE) 10:53:37 145.935-145.965
QB50P2 25 May 10:47:56 10:51:29 27° 66° (ENE) 10:55:03 145.880/145.840
CINEMA 3 25 May 10:48:48 10:51:26 16° 299° (WNW) 10:54:03 145.822/145.860
POLYITAN 1 25 May 10:50:20 10:53:56 27° 66° (ENE) 10:57:31 437.675
UWE-3 25 May 10:52:07 10:56:10 53° 288° (WNW) 11:00:15 435.000/436.395/437.385
AUBIESAT-1 25 May 10:52:29 10:54:06 13° 305° (NW) 10:55:41 437.475
COMPASS 1 25 May 10:53:38 10:57:05 25° 295° (WNW) 11:00:33 437.405
HUMSAT D 25 May 10:55:08 10:58:48 29° 96° (E) 11:02:28 437.325/437.525
SO-50 25 May 10:56:27 11:00:38 32° 243° (WSW) 11:04:42 436.795
AAUSAT CUBESAT 2 25 May 10:58:42 11:02:15 27° 294° (WNW) 11:05:46 437.432
FUNcube-1 25 May 11:03:33 11:07:40 63° 286° (WNW) 11:11:49 145.935
NANOSAT C BR1 25 May 11:06:07 11:10:00 36° 68° (ENE) 11:13:53 145.865
ANTELSAT 25 May 11:10:42 11:14:50 41° 261° (W) 11:18:57 437.575/2403.000
PCSat 25 May 11:14:01 11:19:26 80° 122° (ESE) 11:24:54 145.827
Cosmos 2499 25 May 11:18:05 11:26:09 51° 271° (W) 11:34:33 435.465 / 435.565
AO-85 25 May 11:19:33 11:21:30 12° 351° (N) 11:23:25 145.980
O/OREOS (USA 219) 25 May 11:22:57 11:27:24 52° 300° (WNW) 11:31:53 437.305
ESTCUBE 1 25 May 11:30:42 11:33:30 16° 90° (E) 11:36:16 437.505/2401.250
JAS-2 25 May 11:31:53 11:37:55 27° 55° (NE) 11:44:11 435.910
DANDE 25 May 11:33:47 11:35:35 11° 71° (ENE) 11:37:29 436.750
GONETS M04 25 May 11:34:17 11:41:13 28° 280° (W) 11:48:06
50 SAT 25 May 11:34:45 11:35:23 10° 88° (E) 11:36:00 437.505
DUCHIFAT 1 25 May 11:45:33 11:49:47 86° 71° (ENE) 11:54:02 145.980
DELFI C3 25 May 11:49:51 11:53:30 33° 292° (WNW) 11:57:09 145.870
Oscar 11 25 May 11:51:48 11:54:59 20° 297° (WNW) 11:58:11 145.826/435.025
CUBEBUG 2 25 May 11:57:07 11:57:59 11° 303° (WNW) 11:58:52 437.445
CUSAT 1 25 May 11:57:59 12:03:49 40° 88° (E) 12:10:48 437.405
ZACube-1 25 May 12:01:13 12:04:00 18° 298° (WNW) 12:06:48 437.345
CUBEBUG 1 25 May 12:02:56 12:06:24 22° 93° (E) 12:09:49 437.445
VELOX 1 25 May 12:03:08 12:06:35 22° 93° (E) 12:10:00 145.980
DX 1 25 May 12:06:43 12:09:56 20° 92° (E) 12:13:07 434.975-435.025
Oscar 19 25 May 12:07:59 12:11:22 18° 57° (ENE) 12:14:44 437.125/150
UNISAT 6 25 May 12:08:52 12:10:39 12° 272° (W) 12:12:25 437.425
BEESAT 2 25 May 12:09:14 12:11:11 13° 111° (ESE) 12:13:08 435.950
BUGSAT 1 25 May 12:14:22 12:18:35 86° 76° (ENE) 12:22:47 437.445
TIGRISAT 25 May 12:18:21 12:19:10 10° 273° (W) 12:20:00 435.000
POPSAT HIP 1 25 May 12:21:10 12:25:07 37° 262° (W) 12:29:05 437.405
QB50P1 25 May 12:21:51 12:25:47 36° 263° (W) 12:29:44 145.935-145.965
QB50P2 25 May 12:23:20 12:27:12 33° 263° (W) 12:31:05 145.880/145.840
POLYITAN 1 25 May 12:25:48 12:29:39 33° 263° (W) 12:33:30 437.675
HO-68 25 May 12:28:44 12:31:15 12° 320° (NW) 12:33:46 435.675
HUMSAT D 25 May 12:30:49 12:34:23 29° 293° (WNW) 12:37:58 437.325/437.525
AISAT 25 May 12:38:18 12:42:38 49° 100° (E) 12:46:55 437.250
SPROUT 25 May 12:41:30 12:44:52 22° 93° (E) 12:48:12 437.525
NANOSAT C BR1 25 May 12:42:22 12:45:50 24° 266° (W) 12:49:18 145.865
BEESAT 3 25 May 12:46:43 12:50:32 50° 122° (ESE) 12:54:23 437.485
PCSat 25 May 12:59:03 13:03:28 25° 323° (NW) 13:07:54 145.827
UKube-1 25 May 12:59:59 13:04:15 54° 101° (E) 13:08:28 .
AO-85 25 May 13:01:38 13:04:12 14° 16° (NNE) 13:06:41 145.980
50 SAT 25 May 13:05:51 13:09:34 69° 286° (WNW) 13:13:16 437.505
ESTCUBE 1 25 May 13:06:13 13:10:45 64° 287° (WNW) 13:15:15 437.505/2401.250
O/OREOS (USA 219) 25 May 13:07:20 13:07:55 10° 322° (NW) 13:08:30 437.305
DANDE 25 May 13:11:10 13:16:32 66° 95° (E) 13:23:36 436.750
JAS-2 25 May 13:14:42 13:22:03 83° 256° (WSW) 13:29:59 435.910
TISAT 1 25 May 13:15:39 13:18:02 15° 90° (E) 13:20:26 437.305
DUCHIFAT 1 25 May 13:25:35 13:26:05 10° 273° (W) 13:26:36 145.980
CUBEBUG 1 25 May 13:38:43 13:42:53 42° 291° (WNW) 13:46:59 437.445
VELOX 1 25 May 13:39:02 13:43:16 44° 291° (WNW) 13:47:27 145.980
CUSAT 1 25 May 13:39:40 13:45:50 47° 292° (WNW) 13:53:16 437.405
DX 1 25 May 13:42:10 13:46:23 47° 291° (WNW) 13:50:33 434.975-435.025
BEESAT 2 25 May 13:44:31 13:48:29 75° 309° (NW) 13:52:29 435.950
Oscar 19 25 May 13:44:51 13:50:03 81° 255° (WSW) 13:55:18 437.125/150
Gurwin Techsat 1B 25 May 13:48:00 13:53:07 51° 69° (ENE) 13:58:16 435.225
AO-7 25 May 13:50:17 13:56:38 25° 47° (NE) 14:03:00 29.400- 29.500
BUGSAT 1 25 May 13:54:00 13:54:33 10° 273° (W) 13:55:06 437.445
AIST 2 25 May 13:58:25 14:00:19 13° 110° (ESE) 14:02:11 435.215
AISAT 25 May 14:15:30 14:18:48 21° 298° (WNW) 14:22:04 437.250
SPROUT 25 May 14:16:59 14:20:58 40° 291° (WNW) 14:24:57 437.525
ITAMSAT 1 25 May 14:21:25 14:26:16 42° 66° (ENE) 14:31:09 435.822/435.867
SWISSCUBE 25 May 14:23:01 14:26:17 18° 91° (E) 14:29:33 437.505
BEESAT 3 25 May 14:25:12 14:28:28 24° 322° (NW) 14:31:45 437.485
ITUPSAT 1 25 May 14:27:50 14:31:06 18° 91° (E) 14:34:20 437.325
UKube-1 25 May 14:36:54 14:39:55 19° 299° (WNW) 14:42:56 .
AO-85 25 May 14:41:37 14:46:09 36° 40° (NE) 14:50:18 145.980
PCSat 25 May 14:47:49 14:48:57 11° 348° (NNW) 14:50:04 145.827
TISAT 1 25 May 14:49:58 14:54:05 59° 288° (WNW) 14:58:11 437.305
Cosmos 2491 25 May 14:50:24 14:58:27 38° 67° (ENE) 15:06:26 435.465 / 435.565
BEESAT 25 May 14:52:22 14:56:35 30° 95° (E) 15:00:47 436.000
DANDE 25 May 14:55:22 15:00:14 26° 302° (WNW) 15:06:09 436.750
YUBILEINY 25 May 15:01:01 15:05:05 14° 71° (ENE) 15:09:10 435.215
JAS-2 25 May 15:03:11 15:08:14 19° 277° (W) 15:13:31 435.910
HORYU 2 25 May 15:20:51 15:22:19 11° 56° (NE) 15:23:47 437.375
BEESAT 2 25 May 15:24:34 15:27:01 15° 330° (NNW) 15:29:29 435.950
CUSAT 1 25 May 15:27:30 15:30:19 12° 316° (NW) 15:33:16 437.405
Oscar 19 25 May 15:28:23 15:30:13 12° 274° (W) 15:32:03 437.125/150
Gurwin Techsat 1B 25 May 15:29:00 15:33:20 25° 267° (W) 15:37:44 435.225
AIST 2 25 May 15:34:03 15:38:12 81° 308° (NW) 15:42:22 435.215
AO-7 25 May 15:40:03 15:48:21 85° 69° (ENE) 15:56:44 29.400- 29.500
SWISSCUBE 25 May 15:59:45 16:04:30 62° 289° (WNW) 16:09:13 437.505
RS-15 25 May 16:00:34 16:04:21 12° 90° (E) 16:08:11 29.354- 29.394
ITAMSAT 1 25 May 16:01:24 16:05:52 29° 265° (W) 16:10:23 435.822/435.867
ITUPSAT 1 25 May 16:04:36 16:09:22 62° 289° (WNW) 16:14:06 437.325
NOAA 18 25 May 16:15:54 16:17:03 11° 48° (NE) 16:18:12 137.9125
AO-85 25 May 16:22:17 16:26:40 38° 243° (WSW) 16:30:39 145.980
MOZHAYETS 4 25 May 16:24:30 16:28:24 26° 94° (E) 16:32:18
KKS-1 25 May 16:26:04 16:30:07 33° 97° (E) 16:34:08 437.445
BEESAT 25 May 16:30:02 16:34:26 37° 293° (WNW) 16:38:48 436.000
PCSat 25 May 16:33:15 16:35:02 11° 16° (NNE) 16:36:49 145.827
Cubesat XI-IV 25 May 16:35:44 16:37:30 12° 51° (NE) 16:39:16 437.490
NOAA 15 25 May 16:37:32 16:40:50 17° 55° (NE) 16:44:09 137.62
Cosmos 2491 25 May 16:47:11 16:55:42 57° 269° (W) 17:04:07 435.465 / 435.565
YUBILEINY 25 May 16:51:32 17:00:05 67° 93° (E) 17:08:41 435.215
HORYU 2 25 May 16:53:44 16:58:09 81° 74° (ENE) 17:02:36 437.375
STARS 25 May 17:07:59 17:12:13 46° 100° (E) 17:16:25 437.465
AIST 2 25 May 17:14:34 17:17:20 17° 329° (NNW) 17:20:07 435.215
CUTE-I 25 May 17:19:41 17:23:56 25° 61° (ENE) 17:28:13 437.470
Cosmos 2504 25 May 17:26:26 17:32:32 30° 83° (E) 17:38:53 435.465 / 435.565
AO-7 25 May 17:35:46 17:42:07 24° 269° (W) 17:48:32 29.400- 29.500
LilacSat-2 25 May 17:38:57 17:41:56 22° 66° (ENE) 17:44:57 437.200
HO-68 25 May 17:41:05 17:43:29 12° 40° (NE) 17:45:52 435.675
CUBESAT XI-V 25 May 17:43:44 17:47:23 22° 92° (E) 17:51:00 437.345
ITUPSAT 1 25 May 17:45:46 17:46:16 10° 308° (NW) 17:46:45 437.325
NOAA 18 25 May 17:51:16 17:56:34 55° 68° (ENE) 18:01:54 137.9125
BRITE-PL 25 May 17:51:21 17:56:44 47° 69° (ENE) 18:02:10 437.365/2234.400
DOVE 4 25 May 17:53:21 17:56:03 14° 58° (ENE) 17:58:42 437.250
MOZHAYETS 4 25 May 18:01:23 18:05:41 39° 292° (WNW) 18:09:58
RS-15 25 May 18:02:46 18:13:40 56° 114° (ESE) 18:25:09 29.354- 29.394
KKS-1 25 May 18:02:46 18:06:37 29° 295° (WNW) 18:10:26 437.445
Cubesat XI-IV 25 May 18:11:20 18:16:34 63° 70° (ENE) 18:21:50 437.490
O/OREOS (USA 219) 25 May 18:12:36 18:14:26 12° 41° (NE) 18:16:15 437.305
NOAA 15 25 May 18:14:35 18:19:55 88° 261° (W) 18:25:17 137.62
PCSat 25 May 18:15:36 18:20:20 29° 40° (NE) 18:25:02 145.827
GOMX 1 25 May 18:27:44 18:33:01 50° 70° (ENE) 18:38:12 467.674
AUBIESAT-1 25 May 18:32:56 18:35:21 16° 57° (ENE) 18:37:41 437.475
HORYU 2 25 May 18:33:38 18:35:18 12° 272° (W) 18:36:58 437.375
M-CUBED/EXP-1 PRIME 25 May 18:36:55 18:39:58 20° 59° (ENE) 18:42:52 437.505
CINEMA 3 25 May 18:41:23 18:43:04 12° 57° (ENE) 18:44:42 145.822/145.860
STARS 25 May 18:44:59 18:48:18 21° 298° (WNW) 18:51:36 437.465
Cosmos 2491 25 May 18:47:55 18:50:26 11° 292° (WNW) 18:52:56 435.465 / 435.565
YUBILEINY 25 May 18:49:59 18:57:34 33° 296° (WNW) 19:05:14 435.215
CUTE-I 25 May 18:58:28 19:03:40 55° 260° (W) 19:08:54 437.470
LilacSat-2 25 May 19:12:40 19:16:07 32° 263° (W) 19:19:35 437.200
CANX-2 25 May 19:15:07 19:18:20 22° 64° (ENE) 19:21:34 2200.000
Cosmos 2504 25 May 19:18:19 19:25:24 58° 285° (WNW) 19:32:57 435.465 / 435.565
CUBESAT XI-V 25 May 19:20:28 19:25:02 49° 290° (WNW) 19:29:33 437.345
HO-68 25 May 19:22:46 19:29:28 45° 62° (ENE) 19:36:11 435.675
SEEDS 25 May 19:22:49 19:25:34 17° 62° (ENE) 19:28:21 437.485
BEESAT 3 25 May 19:23:56 19:26:39 17° 33° (NNE) 19:29:21 437.485
DOVE 4 25 May 19:27:48 19:33:03 83° 76° (ENE) 19:38:07 437.250
BRITE-PL 25 May 19:30:23 19:35:20 31° 267° (W) 19:40:22 437.365/2234.400
NOAA 18 25 May 19:33:10 19:37:34 25° 267° (W) 19:41:59 137.9125
CUTE 1.7 + AOD 2 25 May 19:42:05 19:45:53 34° 68° (ENE) 19:49:43 437.475
CUBEBUG 2 25 May 19:44:41 19:47:09 15° 61° (ENE) 19:49:36 437.445
STRAND 1 25 May 19:45:47 19:50:17 30° 95° (E) 19:54:45 437.568
O/OREOS (USA 219) 25 May 19:50:16 19:54:45 68° 62° (ENE) 19:59:12 437.305
Cubesat XI-IV 25 May 19:53:11 19:57:04 21° 269° (W) 20:01:00 437.490
NOAA 15 25 May 19:57:57 20:00:28 13° 273° (W) 20:03:00 137.62
PCSat 25 May 19:58:46 20:04:09 63° 241° (WSW) 20:09:28 145.827
AUBIESAT-1 25 May 20:05:25 20:09:32 62° 253° (WSW) 20:13:21 437.475
GOMX 1 25 May 20:06:38 20:11:17 28° 267° (W) 20:15:53 467.674
M-CUBED/EXP-1 PRIME 25 May 20:10:15 20:14:20 46° 254° (WSW) 20:18:07 437.505
COMPASS 1 25 May 20:11:40 20:15:28 37° 69° (ENE) 20:19:20 437.405
CINEMA 3 25 May 20:14:45 20:19:31 80° 74° (ENE) 20:24:06 145.822/145.860
RS-15 25 May 20:14:50 20:26:12 59° 321° (NW) 20:38:13 29.354- 29.394
AAUSAT CUBESAT 2 25 May 20:16:27 20:20:11 34° 68° (ENE) 20:23:56 437.432
UWE-3 25 May 20:16:56 20:20:10 21° 64° (ENE) 20:23:21 435.000/436.395/437.385
PRISM 25 May 20:21:59 20:23:15 11° 88° (E) 20:24:30 437.425
BEESAT 2 25 May 20:22:05 20:25:37 29° 41° (NE) 20:29:07 435.950
FUNcube-1 25 May 20:27:36 20:30:25 18° 62° (ENE) 20:33:13 145.935
CUSAT 1 25 May 20:49:00 20:51:35 12° 43° (NE) 20:54:06 437.405
GONETS M04 25 May 20:49:30 20:54:36 17° 73° (ENE) 20:59:42
CANX-2 25 May 20:49:58 20:53:57 42° 262° (W) 20:58:00 2200.000
SEEDS 25 May 20:56:48 21:00:53 54° 260° (W) 21:05:01 437.485
BEESAT 3 25 May 21:00:54 21:04:54 88° 225° (SW) 21:08:51 437.485
DELFI C3 25 May 21:04:41 21:07:49 23° 65° (ENE) 21:10:59 145.870
DOVE 4 25 May 21:08:25 21:11:18 15° 272° (W) 21:14:09 437.250
HO-68 25 May 21:10:31 21:17:14 43° 262° (W) 21:24:00 435.675
Oscar 11 25 May 21:12:41 21:16:54 56° 72° (ENE) 21:21:07 145.826/435.025
Cosmos 2504 25 May 21:17:44 21:20:54 13° 311° (NW) 21:24:09 435.465 / 435.565
CUTE 1.7 + AOD 2 25 May 21:18:17 21:21:48 25° 266° (W) 21:25:20 437.475
CUBEBUG 2 25 May 21:18:55 21:23:19 69° 258° (WSW) 21:27:36 437.445
ZACube-1 25 May 21:22:49 21:27:00 63° 74° (ENE) 21:31:09 437.345
STRAND 1 25 May 21:24:45 21:29:35 42° 293° (WNW) 21:34:23 437.568
O/OREOS (USA 219) 25 May 21:31:06 21:33:36 15° 261° (W) 21:36:05 437.305
